GW5109 Weather Reports


Display with metric or nautical units.
time (UTC)temp
F
wind
direction
speed
MPH
gust
MPH
rain 1hr
in
rain 24hr
in
rain mn
in
humidity
%
barometer
mb
20260504070228 46 209 0.0 0.0 0.00 0.00 0.00 59 1017.8
20260504060149 46 188 0.0 1.0 0.00 0.00 0.00 53 1018.5
20260504050617 47 252 2.0 2.0 0.00 0.00 0.00 50 1018.5
20260504050114 47 240 0.0 3.0 0.00 0.00 0.00 50 1018.5
20260504045611 47 247 2.0 3.0 0.00 0.00 0.00 50 1018.2
20260504045106 47 273 1.0 2.0 0.00 0.00 0.00 51 1018.4
20260504044604 46 239 0.0 2.0 0.00 0.00 0.00 51 1018.2
20260504044100 46 179 1.0 3.0 0.00 0.00 0.00 54 1018.1
20260504043558 46 195 1.0 1.0 0.00 0.00 0.00 53 1018.1
20260504043055 46 217 0.0 1.0 0.00 0.00 0.00 51 1018.2
20260504042552 45 169 0.0 1.0 0.00 0.00 0.00 51 1017.9
20260504042049 46 218 0.0 1.0 0.00 0.00 0.00 51 1018.2
20260504041545 46 207 0.0 1.0 0.00 0.00 0.00 49 1018.1
20260504041041 46 201 0.0 1.0 0.00 0.00 0.00 49 1018.0
20260504040538 46 195 1.0 2.0 0.00 0.00 0.00 49 1018.0
20260504040035 46 222 1.0 1.0 0.00 0.00 0.00 49 1018.2
20260504035532 46 198 0.0 0.0 0.00 0.00 0.00 48 1018.0
20260504035028 46 211 0.0 1.0 0.00 0.00 0.00 49 1018.2
20260504034526 46 211 0.0 2.0 0.00 0.00 0.00 48 1017.9
20260504034023 45 214 0.0 1.0 0.00 0.00 0.00 49 1018.0
20260504033521 46 188 0.0 1.0 0.00 0.00 0.00 48 1017.9
20260504033018 46 225 1.0 2.0 0.00 0.00 0.00 48 1018.1
20260504032515 46 222 1.0 1.0 0.00 0.00 0.00 47 1018.0
20260504032011 47 179 0.0 1.0 0.00 0.00 0.00 45 1017.8
20260504031509 47 184 0.0 0.0 0.00 0.00 0.00 46 1017.8
20260504031005 47 185 0.0 1.0 0.00 0.00 0.00 47 1018.0
20260504030502 46 192 0.0 1.0 0.00 0.00 0.00 48 1017.8
20260504025958 46 165 0.0 0.0 0.00 0.00 0.00 49 1017.9
20260504025455 45 179 0.0 0.0 0.00 0.00 0.00 49 1017.8
20260504024952 45 209 0.0 0.0 0.00 0.00 0.00 50 1018.1
20260504024449 44 181 0.0 0.0 0.00 0.00 0.00 50 1018.2
20260504023946 43 182 0.0 0.0 0.00 0.00 0.00 53 1017.9
20260504023442 43 134 0.0 0.0 0.00 0.00 0.00 53 1018.0
20260504022938 43 134 0.0 0.0 0.00 0.00 0.00 52 1018.1
20260504022435 43 172 0.0 0.0 0.00 0.00 0.00 53 1018.2
20260504021931 43 167 0.0 0.0 0.00 0.00 0.00 53 1018.0
20260504021429 43 179 0.0 0.0 0.00 0.00 0.00 52 1018.1
20260504020926 43 195 0.0 0.0 0.00 0.00 0.00 53 1018.2
20260504020422 44 195 0.0 0.0 0.00 0.00 0.00 52 1018.1
20260504015919 44 195 0.0 0.0 0.00 0.00 0.00 51 1018.0
20260504015415 45 196 0.0 0.0 0.00 0.00 0.00 50 1018.0
20260504014911 46 145 0.0 1.0 0.00 0.00 0.00 50 1018.0
20260504014407 45 145 0.0 1.0 0.00 0.00 0.00 50 1017.8
20260504013904 45 153 0.0 0.0 0.00 0.00 0.00 52 1017.9
20260504013403 45 155 0.0 0.0 0.00 0.00 0.00 50 1017.8
20260504012858 46 148 0.0 0.0 0.00 0.00 0.00 51 1017.7
20260504012357 46 211 0.0 0.0 0.00 0.00 0.00 48 1017.7
20260504011854 46 207 0.0 0.0 0.00 0.00 0.00 49 1017.5
20260504011350 46 146 0.0 0.0 0.00 0.00 0.00 53 1017.5
20260504010846 46 141 1.0 2.0 0.00 0.00 0.00 53 1017.2
20260504010342 46 151 1.0 2.0 0.00 0.00 0.00 52 1017.4
20260504005839 46 156 0.0 0.0 0.00 0.00 0.00 49 1017.6
20260504005336 46 157 1.0 2.0 0.00 0.00 0.00 50 1017.4
20260504004833 47 171 1.0 1.0 0.00 0.00 0.00 49 1017.4
20260504004331 47 234 0.0 0.0 0.00 0.00 0.00 47 1017.4
20260504003827 48 248 0.0 1.0 0.00 0.00 0.00 46 1017.3
20260504003324 49 155 1.0 2.0 0.00 0.00 0.00 46 1017.1
20260504002821 50 190 1.0 1.0 0.00 0.00 0.00 43 1017.1
20260504002317 51 220 0.0 1.0 0.00 0.00 0.00 38 1017.1
20260504001815 51 224 0.0 0.0 0.00 0.00 0.00 38 1017.1
20260504001312 52 227 0.0 4.0 0.00 0.00 0.00 37 1017.0
20260504000809 51 252 1.0 4.0 0.00 0.00 0.00 35 1017.0
20260504000306 52 219 0.0 2.0 0.00 0.00 0.00 42 1016.7
20260503235804 53 194 1.0 3.0 0.00 0.00 0.00 36 1017.1
20260503235301 53 219 0.0 2.0 0.00 0.00 0.00 36 1017.3
20260503234759 53 236 2.0 4.0 0.00 0.00 0.00 34 1017.0
20260503234256 54 244 2.0 4.0 0.00 0.00 0.00 34 1017.1
20260503233754 54 299 2.0 2.0 0.00 0.00 0.00 34 1017.0
20260503233249 55 247 0.0 1.0 0.00 0.00 0.00 34 1017.0
20260503232746 55 233 2.0 7.0 0.00 0.00 0.00 32 1017.3
20260503232243 56 207 0.0 7.0 0.00 0.00 0.00 32 1017.2
20260503231741 56 249 2.0 6.0 0.00 0.00 0.00 32 1017.2
20260503231238 56 252 6.0 10.0 0.00 0.00 0.00 32 1017.3
20260503230729 57 320 2.0 3.0 0.00 0.00 0.00 33 1017.3
20260503230226 57 243 5.0 7.0 0.00 0.00 0.00 30 1017.2
20260503225718 57 263 2.0 6.0 0.00 0.00 0.00 33 1017.3
20260503225217 58 121 1.0 3.0 0.00 0.00 0.00 32 1017.3
20260503224714 57 250 4.0 7.0 0.00 0.00 0.00 30 1017.6
20260503224212 58 236 3.0 3.0 0.00 0.00 0.00 32 1017.4
20260503223710 58 312 3.0 6.0 0.00 0.00 0.00 30 1017.3
20260503223207 58 239 4.0 7.0 0.00 0.00 0.00 29 1017.3
20260503222703 57 253 2.0 7.0 0.00 0.00 0.00 29 1016.8
20260503222201 58 279 4.0 8.0 0.00 0.00 0.00 30 1017.5
20260503221659 58 133 3.0 4.0 0.00 0.00 0.00 30 1017.2
20260503221156 58 254 2.0 3.0 0.00 0.00 0.00 27 1017.1
20260503220653 58 259 4.0 10.0 0.00 0.00 0.00 29 1017.4
20260503220149 58 121 1.0 4.0 0.00 0.00 0.00 30 1017.4
20260503215647 59 219 4.0 6.0 0.00 0.00 0.00 31 1017.3
20260503215143 58 208 1.0 6.0 0.00 0.00 0.00 29 1017.3
20260503214643 58 132 2.0 8.0 0.00 0.00 0.00 30 1017.5
20260503214138 58 288 3.0 9.0 0.00 0.00 0.00 28 1017.7
20260503213638 58 303 1.0 4.0 0.00 0.00 0.00 30 1017.6
20260503213134 58 255 5.0 10.0 0.00 0.00 0.00 30 1017.6
20260503212631 59 285 3.0 10.0 0.00 0.00 0.00 29 1017.7
20260503212129 58 223 2.0 8.0 0.00 0.00 0.00 32 1017.5
20260503211627 58 246 4.0 6.0 0.00 0.00 0.00 31 1017.4
20260503211122 59 195 5.0 10.0 0.00 0.00 0.00 29 1017.6
20260503210618 58 144 2.0 7.0 0.00 0.00 0.00 31 1017.5
20260503210115 58 271 6.0 8.0 0.00 0.00 0.00 31 1017.5
20260503205611 58 229 2.0 7.0 0.00 0.00 0.00 31 1017.5
20260503205107 57 236 3.0 6.0 0.00 0.00 0.00 30 1017.7
20260503204604 56 243 5.0 11.0 0.00 0.00 0.00 33 1017.7
20260503204101 58 268 1.0 3.0 0.00 0.00 0.00 29 1017.8
20260503203558 58 268 3.0 8.0 0.00 0.00 0.00 34 1017.7
20260503203055 57 199 5.0 9.0 0.00 0.00 0.00 28 1017.9
20260503202553 57 292 6.0 7.0 0.00 0.00 0.00 31 1018.0
20260503202051 58 301 4.0 10.0 0.00 0.00 0.00 30 1018.0
20260503201549 57 244 3.0 4.0 0.00 0.00 0.00 30 1018.0
20260503201046 57 230 3.0 4.0 0.00 0.00 0.00 29 1018.2
20260503200542 56 166 2.0 10.0 0.00 0.00 0.00 35 1018.4
20260503200039 57 268 5.0 8.0 0.00 0.00 0.00 31 1018.1
20260503195536 57 330 6.0 8.0 0.00 0.00 0.00 29 1018.1
20260503195032 57 239 2.0 7.0 0.00 0.00 0.00 33 1018.2
20260503194530 57 275 6.0 10.0 0.00 0.00 0.00 30 1018.5
20260503194030 57 285 3.0 6.0 0.00 0.00 0.00 31 1018.7
20260503193527 56 352 4.0 8.0 0.00 0.00 0.00 30 1018.6
20260503193022 55 35 3.0 11.0 0.00 0.00 0.00 31 1018.8
20260503192518 58 253 2.0 6.0 0.00 0.00 0.00 30 1018.9
20260503192014 57 191 4.0 6.0 0.00 0.00 0.00 30 1019.0
20260503191511 56 254 4.0 6.0 0.00 0.00 0.00 30 1019.1
20260503191008 56 263 5.0 11.0 0.00 0.00 0.00 35 1019.1
20260503190505 57 269 4.0 4.0 0.00 0.00 0.00 35 1019.1
20260503190002 56 130 1.0 3.0 0.00 0.00 0.00 33 1019.3
20260503185458 56 303 1.0 9.0 0.00 0.00 0.00 37 1019.4
20260503184957 55 235 2.0 7.0 0.00 0.00 0.00 35 1019.4
20260503184454 56 169 4.0 9.0 0.00 0.00 0.00 35 1019.2
20260503183950 56 66 4.0 4.0 0.00 0.00 0.00 34 1019.2
20260503183447 55 217 2.0 3.0 0.00 0.00 0.00 33 1019.4
20260503182944 54 337 1.0 7.0 0.00 0.00 0.00 34 1019.4
20260503182443 55 173 1.0 3.0 0.00 0.00 0.00 36 1019.6
20260503181940 54 284 4.0 8.0 0.00 0.00 0.00 32 1019.5
20260503181437 55 98 2.0 4.0 0.00 0.00 0.00 34 1019.6
20260503180933 56 229 3.0 4.0 0.00 0.00 0.00 35 1019.6
20260503180431 55 140 1.0 3.0 0.00 0.00 0.00 42 1019.4
20260503175928 53 181 1.0 6.0 0.00 0.00 0.00 33 1019.8
20260503175426 53 345 2.0 6.0 0.00 0.00 0.00 33 1019.9
20260503174921 53 265 1.0 6.0 0.00 0.00 0.00 36 1019.8
20260503174421 54 284 1.0 2.0 0.00 0.00 0.00 38 1020.0
20260503173920 54 277 5.0 10.0 0.00 0.00 0.00 32 1020.2
20260503173417 53 313 5.0 6.0 0.00 0.00 0.00 34 1019.9
20260503172914 54 303 2.0 4.0 0.00 0.00 0.00 36 1020.1
20260503172411 54 266 3.0 3.0 0.00 0.00 0.00 40 1020.1
20260503171907 52 242 3.0 3.0 0.00 0.00 0.00 41 1019.8
20260503171404 51 163 3.0 6.0 0.00 0.00 0.00 42 1020.1
20260503170902 52 141 6.0 8.0 0.00 0.00 0.00 38 1020.2
20260503170358 52 52 3.0 9.0 0.00 0.00 0.00 36 1020.2
20260503150749 46 269 3.0 7.0 0.00 0.00 0.00 49 1021.4
20260503150245 46 331 6.0 8.0 0.00 0.00 0.00 47 1021.0
20260503140210 42 320 3.0 10.0 0.00 0.00 0.00 48 1021.3
20260503131139 41 13 1.0 2.0 0.00 0.00 0.00 61 1021.2
20260503130637 41 233 2.0 4.0 0.00 0.00 0.00 60 1021.3
20260503130134 40 267 1.0 2.0 0.00 0.00 0.00 62 1020.7
20260503110527 33 263 4.0 8.0 0.00 0.00 0.00 80 1019.6
20260503090414 35 241 2.0 2.0 0.00 0.00 0.00 77 1018.2
20260503081340 35 247 1.0 3.0 0.00 0.00 0.00 76 1017.8
20260503080837 35 237 1.0 2.0 0.00 0.00 0.00 74 1017.8
20260503080334 35 271 2.0 3.0 0.00 0.00 0.00 74 1017.8